Regional Weather Roundup
Issued by NWS

Home | Current Version | Previous Version | Graphics & Text | Print | Product List | Glossary On
Versions: 1 2 3 4 5 6 7 8 9 10 11 12 13 14 15 16 17 18 19 20 21 22 23 24 25 26 27 28 29 30 31 32 33 34 35 36 37 38 39 40 41 42 43 44 45 46 47 48 49 50
181
ASUS43 KIND 251800
RWRIN

WEATHER ROUNDUP FOR INDIANA
NATIONAL WEATHER SERVICE INDIANAPOLIS IN
200 PM EDT TUE JUL 25 2017

NOTE: "FAIR" INDICATES FEW OR NO CLOUDS BELOW 12,000 FEET WITH NO
SIGNIFICANT WEATHER AND/OR OBSTRUCTIONS TO VISIBILITY.

* - STATION DOES NOT REPORT WEATHER SUCH AS PRECIPITATION OR FOG.

+ - STATION NOT QUALITY CONTROLLED BY THE NATIONAL WEATHER SERVICE.
    USE DATA WITH CAUTION...ESPECIALLY DEWPOINT AND RELATIVE
    HUMIDITY OBSERVATIONS.

INZ001>003-010>013-019-020-251900-
NORTHWEST INDIANA

CITY           SKY/WX    TMP DP  RH WIND       PRES   REMARKS
MICHIGAN CITY+ SUNNY     77  54  44 S7        30.22F
MONTICELLO +   SUNNY     76  55  49 E10       30.20S
6HR MIN TEMP:  60; 6HR MAX TEMP:  76;

RENSSELAER +   SUNNY     77  50  38 E12       30.22R

$$

LMZ046-743>745-251900-
SOUTHERN LAKE MICHIGAN

STATION/POSITION TIME  TEMP    WIND        PRES    WAVE
                       AIR SEA DIR/SP/G            HT
                 (UTC) (F)     (DEG/KT/KT) (MB)    (FT)
BURNS HARBOR     1730   77     150/  7/ 12 1023.7R
MICHIGAN CITY    1730   74     140/  8/ 11   N/A
5NW MICH CITY    1750   74 74  170/  8/ 10   N/A     1

$$

INZ004-005-014>016-021>024-251900-
NORTH CENTRAL INDIANA

CITY           SKY/WX    TMP DP  RH WIND       PRES   REMARKS
ELKHART        SUNNY     77  50  38 E8        30.23R
GOSHEN         SUNNY     77  49  37 SE7       30.23S
6HR MIN TEMP:  59; 6HR MAX TEMP:  77;

SOUTH BEND     SUNNY     76  52  43 S14       30.23S
6HR MIN TEMP:  62; 6HR MAX TEMP:  77;

WARSAW +       SUNNY     73  54  49 E9        30.23F

$$

INZ006>009-017-018-025>027-251900-
NORTHEAST INDIANA

CITY           SKY/WX    TMP DP  RH WIND       PRES   REMARKS
FORT WAYNE     MOSUNNY   75  54  47 E7        30.22F
6HR MIN TEMP:  62; 6HR MAX TEMP:  75;

KENDALLVILLE + SUNNY     74  54  48 E9        30.24F

$$

INZ028-029-035-036-043>045-051>053-251900-
WEST CENTRAL INDIANA

CITY           SKY/WX    TMP DP  RH WIND       PRES   REMARKS
LAFAYETTE      SUNNY     78  59  51 E10       30.18F
6HR MIN TEMP:  62; 6HR MAX TEMP:  78;

TERRE HAUTE    MOSUNNY   80  65  59 E5        30.16F
6HR MIN TEMP:  65; 6HR MAX TEMP:  80;


$$

INZ030>032-037>040-046>048-054>057-064-065-251900-
CENTRAL INDIANA

CITY           SKY/WX    TMP DP  RH WIND       PRES   REMARKS
ANDERSON       SUNNY     75  59  57 MISG      30.21
COLUMBUS       MOSUNNY   77  54  44 E6        30.19S
FRANKFORT +    SUNNY     78  64  60 SE10      30.22S
6HR MIN TEMP:  63; 6HR MAX TEMP:  78;

GREENWOOD *+   SUNNY    N/A N/A N/A E10       30.19F
INDIANAPOLIS   MOSUNNY   78  56  46 E12       30.17F
6HR MIN TEMP:  65; 6HR MAX TEMP:  78;

-EAGLE CREEK   SUNNY     78  57  48 E8        30.18F
6HR MIN TEMP:  65; 6HR MAX TEMP:  78;

KOKOMO +       SUNNY     75  57  53 E9        30.22S
6HR MIN TEMP:  61; 6HR MAX TEMP:  75;

MT COMFORT *+  SUNNY     75  61  60 E8        30.21S
SHELBYVILLE    SUNNY     78  61  55 E9        30.18F
6HR MIN TEMP:  63; 6HR MAX TEMP:  78;


$$

INZ033-034-041-042-049-050-058-059-251900-
EAST CENTRAL INDIANA

CITY           SKY/WX    TMP DP  RH WIND       PRES   REMARKS
MUNCIE         SUNNY     77  56  48 E9        30.21F
6HR MIN TEMP:  63; 6HR MAX TEMP:  77;

RICHMOND +     SUNNY     73  61  64 E7        30.22F

$$

INZ060-061-067>069-081>083-085>088-251900-
SOUTHWEST INDIANA

CITY           SKY/WX    TMP DP  RH WIND       PRES   REMARKS
EVANSVILLE     SUNNY     85  69  58 E6        30.12S
6HR MIN TEMP:  71; 6HR MAX TEMP:  85;

HUNTINGBURG *+ PTSUNNY   83  71  67 SE8       30.13F
6HR MIN TEMP:  69; 6HR MAX TEMP:  83;


$$

INZ062-063-066-070>080-084-089>092-251900-
SOUTH CENTRAL AND SOUTHEAST INDIANA

CITY           SKY/WX    TMP DP  RH WIND       PRES   REMARKS
BLOOMINGTON    MOSUNNY   80  62  54 VRB3      30.17S
6HR MIN TEMP:  65; 6HR MAX TEMP:  81;

MADISON *+     SUNNY     79  59  50 NE6       30.19F
SEYMOUR +      SUNNY    N/A N/A N/A NE6       30.16F

$$





USA.gov is the U.S. government's official web portal to all federal, state and local government web resources and services.